Lake Clear, NY

3:32 PM EDT on July 24, 2016 (GMT -0400)
Adirondack Regional

Weather History for KSLK - March, 2013

Change the Weather History Date:

Wednesday, March 27, 2013

  Actual Average Record
Temperature  
Mean Temperature 32 °F 29 °F  
Max Temperature 40 °F 41 °F 69 °F (1993)
Min Temperature 24 °F 18 °F -16 °F (2014)
Degree Days  
Heating Degree Days 33 36  
Month to date heating degree days 1130 1119  
Since 1 July heating degree days 7387 7824  
Cooling Degree Days 0 0  
Month to date cooling degree days 0 0  
Year to date cooling degree days 0 0  
Moisture  
Dew Point 23 °F    
Average Humidity 68    
Maximum Humidity 85    
Minimum Humidity 50    
Precipitation  
Precipitation T in 0.09 in 1.40 in (1955)
Month to date precipitation 0.81 1.92  
Year to date precipitation 2.70 5.66  
Sea Level Pressure  
Sea Level Pressure 29.86 in    
Wind  
Wind Speed 4 mph (WSW)    
Max Wind Speed 12 mph    
Max Gust Speed 18 mph    
Visibility 10 miles    
Events Snow    
T = Trace of Precipitation, MM = Missing Value Source: NWS Daily Summary

Daily Weather History Graph

Daily Weather History Graph

Search for Another Location

Airport or City:

Trip Planner

Search our weather history database for the weather conditions in past years. The results will help you decide how hot, cold, wet, or windy it might be!

Date:

Astronomy

Mar. 27, 2013 Rise Set
Actual Time 6:46 AM EDT 7:18 PM EDT
Civil Twilight 6:17 AM EDT 7:47 PM EDT
Nautical Twilight 5:43 AM EDT 8:21 PM EDT
Astronomical Twilight 5:07 AM EDT 8:57 PM EDT
Moon 8:02 PM EDT (3/27) 6:34 AM EDT (3/27)
Length of Visible Light 13h 29m
Length of Day
12h 31m
Full, 100% of the Moon is Illuminated
Mar 27
Full
Apr 3
Last Quarter
Apr 10
New
Apr 18
First Quarter
Apr 25
Full

Hourly Weather History & Observations

Time (EDT) Temp. Windchill Dew Point Humidity Pressure Visibility Wind Dir Wind Speed Gust Speed Precip Events Conditions
12:51 AM 25.0 °F - 17.1 °F 72% 29.83 in 10.0 mi Calm Calm - N/A   Overcast
1:51 AM 26.1 °F 18.4 °F 19.9 °F 78% 29.82 in 10.0 mi SSW 6.9 mph - N/A   Overcast
2:51 AM 27.0 °F 18.7 °F 21.0 °F 78% 29.81 in 9.0 mi SSW 8.1 mph - 0.00 in   Overcast
3:51 AM 28.9 °F 25.2 °F 23.0 °F 78% 29.80 in 10.0 mi WSW 3.5 mph - N/A   Overcast
4:51 AM 28.9 °F - 23.0 °F 78% 29.79 in 10.0 mi Calm Calm - N/A   Overcast
5:51 AM 28.0 °F - 25.0 °F 88% 29.80 in 10.0 mi Calm Calm - 0.00 in   Overcast
6:51 AM 27.0 °F 21.6 °F 23.0 °F 85% 29.81 in 10.0 mi SSW 4.6 mph - N/A   Overcast
7:51 AM 28.0 °F 24.2 °F 24.1 °F 85% 29.83 in 10.0 mi SW 3.5 mph - N/A   Overcast
8:51 AM 30.9 °F 26.2 °F 25.0 °F 79% 29.85 in 9.0 mi SW 4.6 mph - 0.00 in Snow Light Snow
9:51 AM 35.1 °F 31.0 °F 24.1 °F 64% 29.85 in 10.0 mi Variable 4.6 mph - 0.00 in   Overcast
10:51 AM 37.0 °F 33.3 °F 24.1 °F 59% 29.85 in 10.0 mi WNW 4.6 mph - N/A   Overcast
1:51 PM 37.9 °F 32.1 °F 21.9 °F 53% 29.86 in 10.0 mi West 8.1 mph - N/A   Overcast
2:51 PM 37.9 °F 32.7 °F 23.0 °F 55% 29.86 in 10.0 mi Variable 6.9 mph - N/A   Overcast
3:51 PM 37.9 °F 33.5 °F 23.0 °F 55% 29.86 in 10.0 mi Variable 5.8 mph - N/A   Overcast
4:51 PM 37.9 °F 32.1 °F 23.0 °F 55% 29.88 in 10.0 mi NW 8.1 mph - N/A   Overcast
6:51 PM 36.0 °F 33.3 °F 24.1 °F 62% 29.92 in 10.0 mi Variable 3.5 mph - N/A   Overcast
7:51 PM 35.1 °F 31.0 °F 24.1 °F 64% 29.94 in 10.0 mi Variable 4.6 mph - N/A   Overcast
8:51 PM 33.1 °F - 24.1 °F 70% 29.94 in 10.0 mi Calm Calm - N/A   Mostly Cloudy
9:51 PM 30.9 °F - 23.0 °F 72% 29.95 in 10.0 mi Calm Calm - N/A   Overcast
10:51 PM 28.0 °F - 23.0 °F 81% 29.95 in 10.0 mi Calm Calm - N/A   Overcast
11:51 PM 28.0 °F - 23.0 °F 81% 29.94 in 10.0 mi Calm Calm - N/A   Overcast